Погода в Мирном

Россия / Ставропольский край     43°56′52″N   42°40′26″E
темп.,
°C
ветер,
м/с
пор.,
м/с
влажн.,
%
обл.,
%
осадки,
мм/ч
давл.,
гПа
погр.,
м
22 января, сб
сб2200:00−3ю446857 0.0 101649
03:00−4ю33659 0.0 101526
06:00−3ююз3367100 0.0 101220
09:00−3юз2273100 0.0 101424
12:000сз2375100 0.0 1014224
15:00−2ссз2389100 0.0 1015379
18:00−3св1191100 0.0 1017303
21:00−3в1296100 0.1 1016246
23 января, вс
вс2300:00−4в1294100 0.1 1015250
03:00−4всв129596 0.2 1014168
06:00−4в129382 0.1 1013240
09:00−4вюв238928 0.1 1012201
12:00−1в227999 0.0 1010327
15:00−1св2282100 0.0 1010363
18:00−4ююв1195100 0.0 101317
21:00−3в129697 0.0 101366
24 января, пн
пн2400:00−4вюв119493 0.0 101429
03:00−5юв2291100 0.0 101526
06:00−2в0191100 0.0 101440
09:00−3юв00916 0.0 101649
12:000сз1187100 0.0 1017224
15:000вюв228912 0.1 1018231
18:00−3ю22895 0.0 102113
21:00−4юз228599 0.0 102320
25 января, вт
вт2500:00−2всв1196100 0.1 102490
03:00−2в1298100 0.4 1024126
06:00−2св1198100 0.9 102395
09:00−2зсз2296100 2.5 1026197
12:00−1ссз2292100 0.3 1026442
15:00−2с2295100 0.5 1026326
18:00−3ссв1297100 0.2 1027202
21:00−4всв2398100 0.4 1026182
26 января, ср
ср2600:00−5юв2393100 0.1 1024138
03:00−5ююв1289100 0.1 1024151
06:00−6юв2389100 0.0 1021120
09:00−6юв238336 0.0 1021157
12:00−3вюв338197 0.0 1018441
15:00−2в238099 0.0 1016434
18:00−6ююв229199 0.0 101924
21:00−4ююв1188100 0.0 101739